Location: Coupvray
(48.8929°N, 2.7967°E)
Time: 00:26:40
(UTC+00:00)

Cosmos 1607 - Pass Details

Date: 14 July 2020
Orbit: 913 x 989 km, 65.0° (Epoch: 03 August)

Event Time Altitude Azimuth Distance (km) Brightness Sun altitude
Exits shadow 00:20:03 21° 231° (SW) 1,986 5.2 -19.2°
Maximum altitude 00:24:22 70° 312° (NW) 1,011 4.1 -19.2°
Drops below altitude 10° 00:30:43 10° 36° (NE) 2,715 7.3 -19.0°
Sets 00:33:20 0° 39° (NE) 3,675 8.1 -18.9°
